Location: Neuvy Saint Sepulchre
(46.5953°N, 1.8122°E)
Time: 20:23:38
(UTC+01:00)

ISS - Pass Details

Date: 20 March 2023
Orbit: 414 x 422 km, 51.6° (Epoch: 25 March)

Event Time Altitude Azimuth Distance (km) Brightness Sun altitude
Rises 20:12:09 0° 252° (WSW) 2,352 1.1 -12.3°
Reaches altitude 10° 20:14:15 10° 256° (WSW) 1,489 0.1 -12.6°
Maximum altitude 20:17:34 63° 338° (NNW) 468 -3.4 -13.2°
Enters shadow 20:20:04 16° 58° (ENE) 1,162 -1.9 -13.6°
